Overview Statistics Trail Chart Weather Telemetry Raw packets
 

This is the latest recevied weather packets stored in our database for station/object KH6DH-13. If no packets are shown the sender has not sent any weather packets the latest 10 day(s).

<< 13 14 15 16 17 18 19 >>
Time Temp. Humidity Pressure Rain* Wind** Luminosity Snow
1788461135 25° C - - 0.76 mm 2.24 m/s, 69° - -
1788460534 25.56° C - - 0.76 mm 1.79 m/s, 82° - -
1788459933 25.56° C - - 0 mm 0.89 m/s, 41° - -
1788459332 25.56° C - - 0 mm 1.34 m/s, 105° - -
1788458731 25.56° C - - 0 mm 1.34 m/s, 44° - -
1788458130 25.56° C - - 0 mm 2.24 m/s, 108° - -
1788457529 25° C - - 0 mm 1.34 m/s, 339° - -
1788456928 25° C - - 0 mm 0 m/s - -
1788456327 24.44° C - - 0 mm 0.45 m/s, 166° - -
1788455726 25° C - - 0 mm 1.34 m/s, 86° - -
1788455125 24.44° C - - 0 mm 0.45 m/s, 27° - -
1788454524 25° C - - 0 mm 0.89 m/s, 68° - -
1788453923 25° C - - 0 mm 0.45 m/s, 354° - -
1788453322 25° C - - 0 mm 0 m/s - -
1788452721 25° C - - 0.25 mm 2.68 m/s, 32° - -
1788452120 25° C - - 0.25 mm 1.79 m/s, 314° - -
1788451519 25° C - - 0.25 mm 2.68 m/s, 56° - -
1788450918 25° C - - 0.25 mm 0.89 m/s, 121° - -
1788450315 25° C - - 0.25 mm 1.34 m/s, 14° - -
1788449714 25° C - - 0.25 mm 1.34 m/s, 37° - -
1788449113 24.44° C - - 0 mm 1.79 m/s, 3° - -
1788448512 25° C - - 0 mm 2.24 m/s, 326° - -
1788447911 25° C - - 0 mm 1.79 m/s, 70° - -
1788447310 25° C - - 0 mm 0.89 m/s, 308° - -
1788446709 25° C - - 0 mm 0.89 m/s, 302° - -

* Rain latest hour (hover to see other rain measurements)
** Current wind speed in m/s (hover to see current wind gust speed)